,,Stat6,,Stat2,,Stat8,,Stat9,,Stat10,,Wind1,,Wind1,
time,status,PA1M_AVG,status,PR1M_SUM,status,RH1M_AVG,status,SR1M_AVG,status,TA1M_AVG,status,W1dAve1m,status,W1sAve1m,
2004-01-07, 00:00:00,VALID,919.757,VALID,0,VALID,96.9141,VALID,-0.0339617,VALID,20.2443,VALID,143,VALID,1.15243,
2004-01-07, 00:01:00,VALID,919.75,VALID,0,VALID,96.9751,VALID,-0.0339617,VALID,20.244,VALID,142,VALID,0.950036,
2004-01-07, 00:02:01,VALID,919.739,VALID,0,VALID,97.0018,VALID,-0.0509425,VALID,20.2375,VALID,153,VALID,0.937137,
2004-01-07, 00:03:00,VALID,919.741,VALID,0,VALID,97.1023,VALID,-0.0339617,VALID,20.2507,VALID,142,VALID,0.96858,
2004-01-07, 00:04:01,VALID,919.728,VALID,0,VALID,97.1875,VALID,-0.0509425,VALID,20.2378,VALID,137,VALID,0.807106,
2004-01-07, 00:05:00,VALID,919.732,VALID,0,VALID,97.2472,VALID,-0.0509425,VALID,20.2378,VALID,142,VALID,0.677144,
2004-01-07, 00:06:00,VALID,919.736,VALID,0,VALID,97.3235,VALID,0,VALID,20.2114,VALID,138,VALID,0.672965,
2004-01-07, 00:07:00,VALID,919.719,VALID,0,VALID,97.4481,VALID,-0.0509425,VALID,20.212,VALID,150,VALID,0.418786,
2004-01-07, 00:08:00,VALID,919.716,VALID,0,VALID,97.5092,VALID,-0.0509425,VALID,20.202,VALID,122,VALID,0.182355,
2004-01-07, 00:09:00,VALID,919.704,VALID,0,VALID,97.4965,VALID,-0.0509425,VALID,20.2157,VALID,127,VALID,0.570858,
2004-01-07, 00:10:00,VALID,919.689,VALID,0,VALID,97.4939,VALID,-0.0509425,VALID,20.202,VALID,123,VALID,0.461957,
2004-01-07, 00:11:00,VALID,919.67,VALID,0,VALID,97.4291,VALID,-0.0339617,VALID,20.199,VALID,150,VALID,0.930432,
2004-01-07, 00:12:00,VALID,919.656,VALID,0,VALID,97.5372,VALID,-0.0509425,VALID,20.1956,VALID,182,VALID,0.35103,
2004-01-07, 00:13:01,VALID,919.637,VALID,0,VALID,97.5321,VALID,-0.0849042,VALID,20.205,VALID,125,VALID,0.772485,
2004-01-07, 00:14:00,VALID,919.625,VALID,0,VALID,97.5321,VALID,-0.0169808,VALID,20.2187,VALID,137,VALID,0.966654,
2004-01-07, 00:15:00,VALID,919.619,VALID,0,VALID,97.4303,VALID,-0.0339617,VALID,20.2122,VALID,147,VALID,1.18388,
2004-01-07, 00:16:00,VALID,919.604,VALID,0,VALID,97.4075,VALID,-0.0339617,VALID,20.1988,VALID,149,VALID,1.00743,
2004-01-07, 00:17:00,VALID,919.606,VALID,0,VALID,97.2981,VALID,-0.0169808,VALID,20.1859,VALID,143,VALID,1.34375,
2004-01-07, 00:18:00,VALID,919.6,VALID,0,VALID,97.0794,VALID,-0.0169808,VALID,20.2125,VALID,149,VALID,1.26456,
2004-01-07, 00:19:00,VALID,919.602,VALID,0,VALID,97.0094,VALID,-0.0679233,VALID,20.2025,VALID,157,VALID,0.87593,
2004-01-07, 00:20:01,VALID,919.598,VALID,0,VALID,97.0463,VALID,-0.0509425,VALID,20.2055,VALID,163,VALID,0.760243,
2004-01-07, 00:21:01,VALID,919.585,VALID,0,VALID,97.1188,VALID,-0.0339617,VALID,20.1988,VALID,139,VALID,0.699219,
2004-01-07, 00:22:00,VALID,919.571,VALID,0,VALID,97.2383,VALID,-0.0339617,VALID,20.2028,VALID,147,VALID,0.392721,
2004-01-07, 00:23:00,VALID,919.557,VALID,0.2,VALID,97.2421,VALID,-0.0169808,VALID,20.1923,VALID,136,VALID,0.990184,
2004-01-07, 00:24:00,VALID,919.549,VALID,0,VALID,97.1836,VALID,-0.0509425,VALID,20.17,VALID,130,VALID,1.00927,
2004-01-07, 00:25:00,VALID,919.537,VALID,0,VALID,97.1709,VALID,-0.0339617,VALID,20.1729,VALID,124,VALID,0.781064,
2004-01-07, 00:26:00,VALID,919.522,VALID,0,VALID,97.0044,VALID,-0.0169808,VALID,20.1635,VALID,137,VALID,1.33194,
2004-01-07, 00:27:01,VALID,919.512,VALID,0,VALID,96.7856,VALID,0.0169808,VALID,20.1628,VALID,135,VALID,1.2977,
2004-01-07, 00:28:00,VALID,919.492,VALID,0,VALID,96.6216,VALID,0.0679233,VALID,20.1652,VALID,161,VALID,0.823171,
2004-01-07, 00:29:00,VALID,919.485,VALID,0,VALID,96.5593,VALID,0.0849042,VALID,20.198,VALID,146,VALID,1.08921,
2004-01-07, 00:30:00,VALID,919.484,VALID,0,VALID,96.4932,VALID,0.0679233,VALID,20.2005,VALID,147,VALID,0.975174,
2004-01-07, 00:31:00,VALID,919.479,VALID,0,VALID,96.4245,VALID,0.0679233,VALID,20.2109,VALID,134,VALID,0.960938,
2004-01-07, 00:32:01,VALID,919.487,VALID,0,VALID,96.4398,VALID,0.0509425,VALID,20.2139,VALID,69,VALID,0.742773,
2004-01-07, 00:33:00,VALID,919.496,VALID,0,VALID,96.6127,VALID,0.0679233,VALID,20.1968,VALID,81,VALID,0.695135,
2004-01-07, 00:34:00,VALID,919.496,VALID,0,VALID,96.6547,VALID,0.0339617,VALID,20.1846,VALID,100,VALID,0.818677,
2004-01-07, 00:35:00,VALID,919.493,VALID,0,VALID,96.5491,VALID,0.0509425,VALID,20.1752,VALID,109,VALID,0.744097,
2004-01-07, 00:36:01,VALID,919.473,VALID,0,VALID,96.5974,VALID,0.0169808,VALID,20.1784,VALID,149,VALID,0.615189,
2004-01-07, 00:37:01,VALID,919.468,VALID,0,VALID,96.7055,VALID,0.0509425,VALID,20.1784,VALID,173,VALID,0.394259,
2004-01-07, 00:38:00,VALID,919.457,VALID,0,VALID,96.806,VALID,0.0849042,VALID,20.1776,VALID,182,VALID,0.403764,
2004-01-07, 00:39:00,VALID,919.452,VALID,0,VALID,96.8937,VALID,0.0679233,VALID,20.1811,VALID,154,VALID,0.416406,
2004-01-07, 00:40:01,VALID,919.438,VALID,0,VALID,96.9255,VALID,0.0509425,VALID,20.1781,VALID,159,VALID,0.341346,
2004-01-07, 00:41:00,VALID,919.436,VALID,0,VALID,96.9395,VALID,0.0679233,VALID,20.1585,VALID,166,VALID,0.364702,
2004-01-07, 00:42:00,VALID,919.433,VALID,0,VALID,96.9955,VALID,0.0679233,VALID,20.1453,VALID,171,VALID,0.317765,
2004-01-07, 00:43:00,VALID,919.432,VALID,0,VALID,97.0171,VALID,0.0509425,VALID,20.1359,VALID,166,VALID,0.636533,
2004-01-07, 00:44:01,VALID,919.438,VALID,0,VALID,97.0845,VALID,0.101885,VALID,20.1165,VALID,178,VALID,0.480824,
2004-01-07, 00:45:01,VALID,919.436,VALID,0,VALID,97.2345,VALID,0.0509425,VALID,20.1227,VALID,177,VALID,0.635356,
2004-01-07, 00:46:00,VALID,919.439,VALID,0,VALID,97.2905,VALID,0.101885,VALID,20.1068,VALID,154,VALID,0.356831,
2004-01-07, 00:47:01,VALID,919.436,VALID,0,VALID,97.3935,VALID,0.0679233,VALID,20.1006,VALID,158,VALID,0.420455,
2004-01-07, 00:48:00,VALID,919.424,VALID,0,VALID,97.485,VALID,0.0679233,VALID,20.0748,VALID,142,VALID,0.317472,
2004-01-07, 00:49:00,VALID,919.418,VALID,0,VALID,97.5906,VALID,0.0849042,VALID,20.0748,VALID,140,VALID,0.206836,
2004-01-07, 00:50:00,VALID,919.411,VALID,0,VALID,97.6516,VALID,0.0849042,VALID,20.0713,VALID,140,VALID,0.068892,
2004-01-07, 00:51:01,VALID,919.396,VALID,0,VALID,97.7419,VALID,0.0339617,VALID,20.0723,VALID,140,VALID,0.183036,
2004-01-07, 00:52:01,VALID,919.386,VALID,0,VALID,97.63,VALID,0.0679233,VALID,20.0554,VALID,130,VALID,0.697569,
2004-01-07, 00:53:00,VALID,919.385,VALID,0,VALID,97.6694,VALID,0.0509425,VALID,20.0465,VALID,127,VALID,0.557231,
2004-01-07, 00:54:00,VALID,919.384,VALID,0,VALID,97.6986,VALID,0.0509425,VALID,20.0398,VALID,127,VALID,0.708984,
2004-01-07, 00:55:01,VALID,919.391,VALID,0,VALID,97.7215,VALID,0.0339617,VALID,20.04,VALID,137,VALID,0.833097,
2004-01-07, 00:56:01,VALID,919.388,VALID,0,VALID,97.7254,VALID,0.0509425,VALID,20.0301,VALID,137,VALID,0.717076,
2004-01-07, 00:57:00,VALID,919.394,VALID,0,VALID,97.7292,VALID,0,VALID,20.0174,VALID,95,VALID,0.560454,
2004-01-07, 00:58:00,VALID,919.406,VALID,0,VALID,97.761,VALID,-0.0339617,VALID,20.0214,VALID,67,VALID,0.620427,
2004-01-07, 00:59:01,VALID,919.413,VALID,0,VALID,97.8462,VALID,-0.0679233,VALID,20.0155,VALID,56,VALID,0.681771,
2004-01-07, 01:00:01,VALID,919.418,VALID,0,VALID,97.9581,VALID,-0.0339617,VALID,19.9916,VALID,33,VALID,0.683308,
2004-01-07, 01:01:01,VALID,919.419,VALID,0,VALID,98.1488,VALID,-0.0339617,VALID,19.9961,VALID,15,VALID,1.15516,
2004-01-07, 01:02:00,VALID,919.436,VALID,0,VALID,98.1208,VALID,-0.0339617,VALID,19.9765,VALID,9,VALID,1.16806,
2004-01-07, 01:03:01,VALID,919.434,VALID,0,VALID,98.1374,VALID,-0.0509425,VALID,19.9509,VALID,2,VALID,0.853198,
2004-01-07, 01:04:01,VALID,919.433,VALID,0,VALID,98.2429,VALID,-0.0509425,VALID,19.9245,VALID,6,VALID,0.972479,
2004-01-07, 01:05:01,VALID,919.425,VALID,0,VALID,98.3713,VALID,-0.0339617,VALID,19.9218,VALID,5,VALID,0.888889,
2004-01-07, 01:06:01,VALID,919.427,VALID,0,VALID,98.5722,VALID,-0.0169808,VALID,19.8888,VALID,7,VALID,0.536014,
2004-01-07, 01:07:00,VALID,919.425,VALID,0,VALID,98.7312,VALID,-0.0169808,VALID,19.8831,VALID,7,VALID,0.49564,
2004-01-07, 01:08:01,VALID,919.419,VALID,0,VALID,98.8787,VALID,-0.0849042,VALID,19.8567,VALID,6,VALID,0.761719,
2004-01-07, 01:09:01,VALID,919.421,VALID,0,VALID,99.0542,VALID,-0.0169808,VALID,19.8537,VALID,13,VALID,0.406808,
2004-01-07, 01:10:01,VALID,919.404,VALID,0,VALID,99.2437,VALID,-0.0339617,VALID,19.8632,VALID,13,VALID,0.433966,
2004-01-07, 01:11:01,VALID,919.385,VALID,0,VALID,99.2691,VALID,-0.0339617,VALID,19.8731,VALID,16,VALID,0.781661,
2004-01-07, 01:12:01,VALID,919.375,VALID,0,VALID,99.3072,VALID,-0.0679233,VALID,19.8441,VALID,30,VALID,0.986151,
2004-01-07, 01:13:01,VALID,919.381,VALID,0,VALID,99.3746,VALID,0,VALID,19.8279,VALID,35,VALID,0.700521,
2004-01-07, 01:14:01,VALID,919.373,VALID,0,VALID,99.4573,VALID,-0.0509425,VALID,19.8282,VALID,39,VALID,0.69308,
2004-01-07, 01:15:01,VALID,919.366,VALID,0,VALID,99.4331,VALID,-0.0509425,VALID,19.8056,VALID,72,VALID,0.550781,
2004-01-07, 01:16:01,VALID,919.361,VALID,0,VALID,99.4369,VALID,-0.0339617,VALID,19.7698,VALID,71,VALID,0.653706,
2004-01-07, 01:17:01,VALID,919.352,VALID,0,VALID,99.4789,VALID,-0.0509425,VALID,19.7435,VALID,72,VALID,0.604651,
2004-01-07, 01:18:01,VALID,919.349,VALID,0,VALID,99.5374,VALID,-0.0339617,VALID,19.7377,VALID,66,VALID,0.691939,
2004-01-07, 01:19:01,VALID,919.323,VALID,0,VALID,99.5946,VALID,-0.0339617,VALID,19.7211,VALID,66,VALID,0.977148,
2004-01-07, 01:20:01,VALID,919.306,VALID,0,VALID,99.6175,VALID,-0.101885,VALID,19.7114,VALID,79,VALID,1.08949,
2004-01-07, 01:21:01,VALID,919.3,VALID,0,VALID,99.6264,VALID,-0.0169808,VALID,19.7149,VALID,102,VALID,1.09096,
2004-01-07, 01:22:01,VALID,919.267,VALID,0,VALID,99.6391,VALID,-0.0339617,VALID,19.7082,VALID,81,VALID,1.15698,
2004-01-07, 01:23:01,VALID,919.237,VALID,0,VALID,99.6582,VALID,-0.0509425,VALID,19.7055,VALID,94,VALID,1.01753,
2004-01-07, 01:24:01,VALID,919.212,VALID,0,VALID,99.6709,VALID,-0.0509425,VALID,19.7052,VALID,94,VALID,0.92569,
2004-01-07, 01:25:01,VALID,919.198,VALID,0,VALID,99.6963,VALID,-0.0339617,VALID,19.7149,VALID,62,VALID,0.711301,
2004-01-07, 01:26:01,VALID,919.181,VALID,0,VALID,99.6709,VALID,0,VALID,19.7181,VALID,63,VALID,0.728981,
2004-01-07, 01:27:01,VALID,919.172,VALID,0,VALID,99.6722,VALID,-0.0849042,VALID,19.7345,VALID,38,VALID,0.678052,
2004-01-07, 01:28:01,VALID,919.161,VALID,0,VALID,99.6378,VALID,-0.0509425,VALID,19.7345,VALID,59,VALID,0.882102,
2004-01-07, 01:29:01,VALID,919.162,VALID,0,VALID,99.6264,VALID,-0.0169808,VALID,19.7603,VALID,53,VALID,0.688045,
2004-01-07, 01:30:01,VALID,919.162,VALID,0,VALID,99.587,VALID,-0.0339617,VALID,19.7502,VALID,65,VALID,0.709821,
2004-01-07, 01:31:01,VALID,919.154,VALID,0,VALID,99.5412,VALID,-0.0509425,VALID,19.7671,VALID,64,VALID,0.492733,
2004-01-07, 01:32:01,VALID,919.148,VALID,0,VALID,99.4967,VALID,-0.0509425,VALID,19.7733,VALID,43,VALID,0.458807,
2004-01-07, 01:33:01,VALID,919.132,VALID,0,VALID,99.4293,VALID,-0.0169808,VALID,19.7695,VALID,66,VALID,0.492914,
2004-01-07, 01:34:01,VALID,919.117,VALID,0,VALID,99.3912,VALID,-0.0169808,VALID,19.7733,VALID,46,VALID,0.558594,
2004-01-07, 01:35:01,VALID,919.117,VALID,0,VALID,99.3556,VALID,-0.0339617,VALID,19.7827,VALID,45,VALID,0.696766,
2004-01-07, 01:36:01,VALID,919.087,VALID,0,VALID,99.306,VALID,-0.0509425,VALID,19.7825,VALID,66,VALID,0.562128,
2004-01-07, 01:37:01,VALID,919.088,VALID,0,VALID,99.2449,VALID,-0.0169808,VALID,19.7921,VALID,83,VALID,0.615039,
2004-01-07, 01:38:01,VALID,919.078,VALID,0,VALID,99.1826,VALID,0,VALID,19.7889,VALID,82,VALID,0.462109,
2004-01-07, 01:39:01,VALID,919.072,VALID,0,VALID,99.161,VALID,0,VALID,19.7926,VALID,94,VALID,0.375953,
2004-01-07, 01:40:01,VALID,919.043,VALID,0,VALID,99.1508,VALID,-0.0509425,VALID,19.7892,VALID,91,VALID,0.203852,
2004-01-07, 01:41:01,VALID,919.017,VALID,0,VALID,99.1419,VALID,-0.0339617,VALID,19.7961,VALID,112,VALID,0.376143,
2004-01-07, 01:42:00,VALID,919.01,VALID,0,VALID,99.1406,VALID,-0.0169808,VALID,19.7857,VALID,146,VALID,1.04647,
2004-01-07, 01:43:00,VALID,918.999,VALID,0,VALID,99.1216,VALID,-0.0849042,VALID,19.7924,VALID,135,VALID,0.996366,
2004-01-07, 01:44:00,VALID,918.981,VALID,0,VALID,99.0911,VALID,-0.0509425,VALID,19.7961,VALID,135,VALID,1.08054,
2004-01-07, 01:45:00,VALID,918.974,VALID,0,VALID,99.0555,VALID,-0.0169808,VALID,19.7827,VALID,147,VALID,0.745739,
2004-01-07, 01:46:00,VALID,918.96,VALID,0,VALID,99.0466,VALID,-0.0339617,VALID,19.8026,VALID,147,VALID,0.670272,
2004-01-07, 01:47:00,VALID,918.945,VALID,0,VALID,99.0389,VALID,0,VALID,19.776,VALID,140,VALID,0.84702,
2004-01-07, 01:48:00,VALID,918.93,VALID,0,VALID,98.9957,VALID,-0.0169808,VALID,19.7894,VALID,148,VALID,0.956745,
2004-01-07, 01:49:00,VALID,918.917,VALID,0,VALID,98.9614,VALID,-0.0339617,VALID,19.7889,VALID,170,VALID,0.519817,
2004-01-07, 01:50:00,VALID,918.91,VALID,0,VALID,98.9181,VALID,-0.0169808,VALID,19.7954,VALID,153,VALID,0.668857,
2004-01-07, 01:51:00,VALID,918.902,VALID,0,VALID,98.8978,VALID,-0.0679233,VALID,19.7959,VALID,138,VALID,0.906613,
2004-01-07, 01:52:00,VALID,918.899,VALID,0,VALID,98.8545,VALID,-0.0339617,VALID,19.809,VALID,145,VALID,1.3599,
2004-01-07, 01:53:00,VALID,918.889,VALID,0,VALID,98.8291,VALID,-0.0169808,VALID,19.8021,VALID,143,VALID,1.15062,
2004-01-07, 01:54:00,VALID,918.891,VALID,0,VALID,98.7604,VALID,-0.0339617,VALID,19.7986,VALID,145,VALID,1.07576,
2004-01-07, 01:55:00,VALID,918.89,VALID,0,VALID,98.6498,VALID,-0.0169808,VALID,19.8056,VALID,157,VALID,0.950521,
2004-01-07, 01:56:00,VALID,918.896,VALID,0,VALID,98.5048,VALID,-0.0509425,VALID,19.8185,VALID,116,VALID,1.3006,
2004-01-07, 01:57:00,VALID,918.891,VALID,0,VALID,98.3879,VALID,-0.0679233,VALID,19.8053,VALID,65,VALID,0.735137,
2004-01-07, 01:58:00,VALID,918.894,VALID,0,VALID,98.2963,VALID,-0.0509425,VALID,19.812,VALID,101,VALID,0.767078,
2004-01-07, 01:59:00,VALID,918.889,VALID,0,VALID,98.159,VALID,-0.0849042,VALID,19.7991,VALID,90,VALID,0.722396,
2004-01-07, 02:00:00,VALID,918.867,VALID,0,VALID,98.0534,VALID,-0.0849042,VALID,19.8021,VALID,96,VALID,1.0322,
2004-01-07, 02:01:00,VALID,918.847,VALID,0,VALID,97.8207,VALID,-0.0509425,VALID,19.815,VALID,115,VALID,1.20108,
2004-01-07, 02:02:00,VALID,918.833,VALID,0,VALID,97.6541,VALID,-0.0849042,VALID,19.8411,VALID,107,VALID,1.03555,
2004-01-07, 02:03:00,VALID,918.823,VALID,0,VALID,97.5372,VALID,-0.0339617,VALID,19.8672,VALID,104,VALID,1.21545,
2004-01-07, 02:04:00,VALID,918.812,VALID,0,VALID,97.4558,VALID,-0.0509425,VALID,19.8833,VALID,105,VALID,1.18342,
2004-01-07, 02:05:00,VALID,918.795,VALID,0,VALID,97.3693,VALID,-0.0339617,VALID,19.9052,VALID,107,VALID,1.51309,
2004-01-07, 02:06:00,VALID,918.798,VALID,0,VALID,97.1811,VALID,-0.0169808,VALID,19.9382,VALID,109,VALID,1.44684,
2004-01-07, 02:07:00,VALID,918.781,VALID,0,VALID,97.0578,VALID,0,VALID,19.9568,VALID,124,VALID,1.42473,
2004-01-07, 02:08:00,VALID,918.776,VALID,0,VALID,96.8772,VALID,-0.0339617,VALID,19.9799,VALID,120,VALID,1.90796,
2004-01-07, 02:09:00,VALID,918.765,VALID,0,VALID,96.6788,VALID,-0.0679233,VALID,20.0155,VALID,110,VALID,1.43932,
2004-01-07, 02:10:00,VALID,918.751,VALID,0,VALID,96.572,VALID,-0.101885,VALID,20.0381,VALID,97,VALID,1.51172,
2004-01-07, 02:11:00,VALID,918.743,VALID,0,VALID,96.5148,VALID,-0.101885,VALID,20.0542,VALID,103,VALID,1.26616,
2004-01-07, 02:12:00,VALID,918.721,VALID,0,VALID,96.4715,VALID,0.0169808,VALID,20.0629,VALID,117,VALID,1.52548,
2004-01-07, 02:13:00,VALID,918.716,VALID,0,VALID,96.3991,VALID,0,VALID,20.0758,VALID,98,VALID,1.2255,
2004-01-07, 02:14:00,VALID,918.712,VALID,0,VALID,96.4131,VALID,0.0509425,VALID,20.0686,VALID,93,VALID,1.18502,
2004-01-07, 02:15:00,VALID,918.714,VALID,0,VALID,96.4156,VALID,0.0169808,VALID,20.0691,VALID,109,VALID,1.61257,
2004-01-07, 02:16:00,VALID,918.704,VALID,0,VALID,96.4118,VALID,0.0169808,VALID,20.0522,VALID,119,VALID,1.18731,
2004-01-07, 02:17:00,VALID,918.699,VALID,0,VALID,96.4398,VALID,0.0339617,VALID,20.0592,VALID,93,VALID,0.80564,
2004-01-07, 02:18:00,VALID,918.688,VALID,0,VALID,96.4245,VALID,0.0509425,VALID,20.0428,VALID,109,VALID,1.28437,
2004-01-07, 02:19:00,VALID,918.685,VALID,0,VALID,96.4347,VALID,0.0679233,VALID,20.043,VALID,103,VALID,1.20579,
2004-01-07, 02:20:00,VALID,918.683,VALID,0,VALID,96.4932,VALID,0.0339617,VALID,20.04,VALID,82,VALID,0.827939,
2004-01-07, 02:21:00,VALID,918.681,VALID,0,VALID,96.5707,VALID,0.0339617,VALID,20.0236,VALID,119,VALID,0.863104,
2004-01-07, 02:22:00,VALID,918.672,VALID,0,VALID,96.6013,VALID,0.0509425,VALID,20.0236,VALID,111,VALID,1.09766,
2004-01-07, 02:23:00,VALID,918.655,VALID,0,VALID,96.5809,VALID,0,VALID,20.0077,VALID,108,VALID,1.45592,
2004-01-07, 02:24:00,VALID,918.653,VALID,0,VALID,96.6152,VALID,0.0169808,VALID,20.0043,VALID,112,VALID,1.07031,
2004-01-07, 02:25:00,VALID,918.652,VALID,0,VALID,96.6636,VALID,0.0339617,VALID,20.008,VALID,113,VALID,0.900694,
2004-01-07, 02:26:00,VALID,918.644,VALID,0,VALID,96.7488,VALID,0.0339617,VALID,19.9913,VALID,83,VALID,0.57298,
2004-01-07, 02:27:00,VALID,918.631,VALID,0,VALID,96.7945,VALID,-0.0509425,VALID,19.9889,VALID,138,VALID,0.546689,
2004-01-07, 02:28:00,VALID,918.627,VALID,0,VALID,96.8365,VALID,-0.0679233,VALID,19.9765,VALID,118,VALID,0.575457,
2004-01-07, 02:29:00,VALID,918.627,VALID,0,VALID,96.8289,VALID,-0.0679233,VALID,19.9703,VALID,133,VALID,0.609375,
2004-01-07, 02:30:00,VALID,918.61,VALID,0,VALID,96.7984,VALID,-0.0679233,VALID,19.9573,VALID,130,VALID,0.874467,
2004-01-07, 02:31:00,VALID,918.604,VALID,0,VALID,96.8149,VALID,-0.0339617,VALID,19.9506,VALID,140,VALID,0.688388,
2004-01-07, 02:32:00,VALID,918.614,VALID,0,VALID,96.8251,VALID,-0.0339617,VALID,19.931,VALID,170,VALID,0.393787,
2004-01-07, 02:33:00,VALID,918.619,VALID,0,VALID,96.9179,VALID,-0.0849042,VALID,19.9352,VALID,174,VALID,0.208031,
2004-01-07, 02:34:00,VALID,918.617,VALID,0,VALID,96.9853,VALID,-0.0849042,VALID,19.9188,VALID,166,VALID,0.484375,
2004-01-07, 02:35:00,VALID,918.632,VALID,0,VALID,96.9433,VALID,-0.101885,VALID,19.9059,VALID,159,VALID,0.42721,
2004-01-07, 02:36:00,VALID,918.638,VALID,0,VALID,96.9382,VALID,-0.101885,VALID,19.8898,VALID,129,VALID,0.23316,
2004-01-07, 02:37:00,VALID,918.641,VALID,0,VALID,96.9904,VALID,-0.0849042,VALID,19.8898,VALID,127,VALID,0.00304878,
2004-01-07, 02:38:00,VALID,918.665,VALID,0,VALID,97.1099,VALID,-0.0849042,VALID,19.8803,VALID,127,VALID,0,
2004-01-07, 02:39:00,VALID,918.666,VALID,0,VALID,97.2129,VALID,-0.0849042,VALID,19.8868,VALID,127,VALID,0.0131479,
2004-01-07, 02:40:00,VALID,918.674,VALID,0,VALID,97.2803,VALID,-0.0849042,VALID,19.8704,VALID,127,VALID,0,
2004-01-07, 02:41:00,VALID,918.686,VALID,0,VALID,97.3884,VALID,-0.0849042,VALID,19.8674,VALID,127,VALID,0,
2004-01-07, 02:42:00,VALID,918.682,VALID,0,VALID,97.4939,VALID,-0.0679233,VALID,19.8473,VALID,128,VALID,0.107617,
2004-01-07, 02:43:00,VALID,918.681,VALID,0,VALID,97.6033,VALID,-0.0509425,VALID,19.8473,VALID,148,VALID,0.235263,
2004-01-07, 02:44:00,VALID,918.666,VALID,0,VALID,97.6249,VALID,-0.0849042,VALID,19.8478,VALID,214,VALID,0.267361,
2004-01-07, 02:45:00,VALID,918.662,VALID,0,VALID,97.6796,VALID,-0.101885,VALID,19.8378,VALID,204,VALID,0.0346799,
2004-01-07, 02:46:00,VALID,918.653,VALID,0,VALID,97.7152,VALID,-0.0679233,VALID,19.8418,VALID,204,VALID,0,
2004-01-07, 02:47:00,VALID,918.652,VALID,0,VALID,97.7241,VALID,-0.0679233,VALID,19.8349,VALID,204,VALID,0,
2004-01-07, 02:48:00,VALID,918.633,VALID,0,VALID,97.7482,VALID,-0.0169808,VALID,19.8279,VALID,179,VALID,0.0752841,
2004-01-07, 02:49:00,VALID,918.627,VALID,0,VALID,97.4354,VALID,-0.0509425,VALID,19.8056,VALID,98,VALID,0.846768,
2004-01-07, 02:50:00,VALID,918.628,VALID,0,VALID,96.7271,VALID,-0.0679233,VALID,19.8088,VALID,119,VALID,0.772461,
2004-01-07, 02:51:00,VALID,918.619,VALID,0,VALID,96.4143,VALID,-0.0509425,VALID,19.8607,VALID,117,VALID,0.668899,
2004-01-07, 02:52:00,VALID,918.62,VALID,0,VALID,96.2185,VALID,-0.0849042,VALID,19.8997,VALID,113,VALID,0.220655,
2004-01-07, 02:53:00,VALID,918.607,VALID,0,VALID,96.0659,VALID,-0.0679233,VALID,19.9116,VALID,121,VALID,0.622713,
2004-01-07, 02:54:00,VALID,918.601,VALID,0,VALID,95.7327,VALID,-0.0849042,VALID,19.9218,VALID,156,VALID,0.880766,
2004-01-07, 02:55:00,VALID,918.589,VALID,0,VALID,95.4238,VALID,-0.0509425,VALID,19.9479,VALID,148,VALID,0.980015,
2004-01-07, 02:56:00,VALID,918.584,VALID,0,VALID,95.3856,VALID,-0.0509425,VALID,19.9931,VALID,124,VALID,0.281428,
2004-01-07, 02:57:00,VALID,918.578,VALID,0,VALID,95.2394,VALID,0.0339617,VALID,20.0013,VALID,123,VALID,0.295603,
2004-01-07, 02:58:00,VALID,918.563,VALID,0,VALID,95.2355,VALID,0.0679233,VALID,20.0077,VALID,159,VALID,0.306141,
2004-01-07, 02:59:00,VALID,918.565,VALID,0,VALID,95.3818,VALID,0.0509425,VALID,20.0172,VALID,156,VALID,0.228561,
2004-01-07, 03:00:00,VALID,918.544,VALID,0,VALID,95.4225,VALID,0.0339617,VALID,20.0236,VALID,127,VALID,0.46317,
2004-01-07, 03:01:00,VALID,918.541,VALID,0,VALID,95.4148,VALID,0.0169808,VALID,20.001,VALID,103,VALID,0.343941,
2004-01-07, 03:02:00,VALID,918.52,VALID,0,VALID,95.4568,VALID,0.0169808,VALID,19.9978,VALID,102,VALID,0.494855,
2004-01-07, 03:03:00,VALID,918.509,VALID,0,VALID,95.4924,VALID,0.0509425,VALID,19.9951,VALID,82,VALID,0.682986,
2004-01-07, 03:04:00,VALID,918.502,VALID,0,VALID,95.453,VALID,0.0849042,VALID,19.9913,VALID,50,VALID,0.696221,
2004-01-07, 03:05:00,VALID,918.496,VALID,0,VALID,95.4886,VALID,0.0169808,VALID,20.0077,VALID,36,VALID,0.784157,
2004-01-07, 03:06:00,VALID,918.481,VALID,0,VALID,95.4924,VALID,0.0169808,VALID,20.0137,VALID,80,VALID,0.81901,
2004-01-07, 03:07:00,VALID,918.481,VALID,0,VALID,95.3945,VALID,0.0339617,VALID,20.0167,VALID,104,VALID,0.666602,
2004-01-07, 03:08:00,VALID,918.488,VALID,0,VALID,95.3818,VALID,0.0169808,VALID,20.0072,VALID,106,VALID,0.857329,
2004-01-07, 03:09:00,VALID,918.48,VALID,0,VALID,95.3843,VALID,0.0509425,VALID,20.014,VALID,94,VALID,0.452195,
2004-01-07, 03:10:00,VALID,918.47,VALID,0,VALID,95.4059,VALID,0.0849042,VALID,20.0236,VALID,93,VALID,0.799055,
2004-01-07, 03:11:00,VALID,918.467,VALID,0,VALID,95.3627,VALID,0.0849042,VALID,20.0164,VALID,102,VALID,0.733045,
2004-01-07, 03:12:00,VALID,918.463,VALID,0,VALID,95.3347,VALID,0.0169808,VALID,20.0045,VALID,106,VALID,0.60103,
2004-01-07, 03:13:00,VALID,918.452,VALID,0,VALID,95.3996,VALID,-0.0509425,VALID,20.0115,VALID,107,VALID,0.503997,
2004-01-07, 03:14:00,VALID,918.462,VALID,0,VALID,95.4644,VALID,-0.0509425,VALID,20.0055,VALID,105,VALID,0.550305,
2004-01-07, 03:15:00,VALID,918.455,VALID,0,VALID,95.6119,VALID,-0.0169808,VALID,19.9988,VALID,115,VALID,0.598292,
2004-01-07, 03:16:00,VALID,918.458,VALID,0,VALID,95.7353,VALID,-0.0339617,VALID,19.9799,VALID,116,VALID,0.491071,
2004-01-07, 03:17:00,VALID,918.445,VALID,0,VALID,95.9527,VALID,-0.0339617,VALID,19.9307,VALID,116,VALID,0.269176,
2004-01-07, 03:18:00,VALID,918.444,VALID,0,VALID,96.1676,VALID,-0.0339617,VALID,19.9094,VALID,116,VALID,0.195858,
2004-01-07, 03:19:00,VALID,918.43,VALID,0,VALID,96.3482,VALID,-0.0509425,VALID,19.8478,VALID,115,VALID,0.0713315,
2004-01-07, 03:20:00,VALID,918.422,VALID,0,VALID,96.6076,VALID,-0.0679233,VALID,19.812,VALID,115,VALID,0.248437,
2004-01-07, 03:21:00,VALID,918.406,VALID,0,VALID,96.7627,VALID,-0.0339617,VALID,19.7762,VALID,115,VALID,0.567645,
2004-01-07, 03:22:00,VALID,918.399,VALID,0,VALID,96.8263,VALID,-0.0679233,VALID,19.7636,VALID,109,VALID,0.294331,
2004-01-07, 03:23:00,VALID,918.421,VALID,0,VALID,96.8022,VALID,-0.0169808,VALID,19.7534,VALID,100,VALID,0.240552,
2004-01-07, 03:24:00,VALID,918.419,VALID,0,VALID,96.839,VALID,-0.0169808,VALID,19.7184,VALID,99,VALID,0.0908918,
2004-01-07, 03:25:00,VALID,918.412,VALID,0,VALID,97.0196,VALID,0,VALID,19.6828,VALID,99,VALID,0.00497159,
2004-01-07, 03:26:00,VALID,918.423,VALID,0,VALID,97.2193,VALID,-0.0339617,VALID,19.6699,VALID,99,VALID,0.208841,
2004-01-07, 03:27:00,VALID,918.429,VALID,0,VALID,97.3439,VALID,-0.0339617,VALID,19.6441,VALID,99,VALID,0,
2004-01-07, 03:28:00,VALID,918.431,VALID,0,VALID,97.4812,VALID,-0.0169808,VALID,19.6145,VALID,99,VALID,0,
2004-01-07, 03:29:00,VALID,918.434,VALID,0,VALID,97.6211,VALID,-0.0169808,VALID,19.6046,VALID,99,VALID,0,
2004-01-07, 03:30:00,VALID,918.438,VALID,0,VALID,97.6007,VALID,-0.0169808,VALID,19.5823,VALID,99,VALID,0.115371,
2004-01-07, 03:31:00,VALID,918.446,VALID,0,VALID,97.7241,VALID,-0.0509425,VALID,19.5599,VALID,99,VALID,0.14984,